TimeCST,TemperatureF,Dew PointF,Humidity,Sea Level PressureIn,VisibilityMPH,Wind Direction,Wind SpeedMPH,Gust SpeedMPH,PrecipitationIn,Events,Conditions,WindDirDegrees,DateUTC
12:01 AM,30.2,24.8,80,29.85,10.0,North,11.5,-,N/A,,Overcast,360,2013-02-28 06:01:00
1:54 AM,30.0,23.0,75,29.93,10.0,North,10.4,-,N/A,,Overcast,360,2013-02-28 07:54:00
2:54 AM,30.0,23.0,75,29.93,10.0,North,11.5,-,N/A,,Overcast,10,2013-02-28 08:54:00
3:54 AM,30.0,23.0,75,29.94,10.0,North,11.5,18.4,N/A,,Overcast,350,2013-02-28 09:54:00
4:54 AM,28.9,24.1,82,29.97,4.0,North,10.4,20.7,0.00,Snow,Light Snow,10,2013-02-28 10:54:00
5:54 AM,28.9,23.0,78,29.99,10.0,North,10.4,-,0.00,,Overcast,360,2013-02-28 11:54:00
6:54 AM,28.0,23.0,81,30.00,6.0,North,11.5,-,0.00,Snow,Light Snow,360,2013-02-28 12:54:00
7:54 AM,28.0,21.0,75,30.03,10.0,North,13.8,20.7,0.00,,Overcast,10,2013-02-28 13:54:00
8:54 AM,28.0,19.9,72,30.04,10.0,North,10.4,-,N/A,,Overcast,10,2013-02-28 14:54:00
9:54 AM,28.0,19.9,72,30.06,10.0,NNE,12.7,25.3,0.00,,Overcast,30,2013-02-28 15:54:00
10:54 AM,28.0,19.9,72,30.08,10.0,North,12.7,18.4,N/A,,Overcast,360,2013-02-28 16:54:00
11:54 AM,28.0,19.0,69,30.09,10.0,NNE,10.4,19.6,N/A,,Overcast,20,2013-02-28 17:54:00
12:54 PM,30.0,19.9,66,30.08,10.0,NNE,15.0,20.7,N/A,,Overcast,30,2013-02-28 18:54:00
1:54 PM,30.0,19.0,64,30.07,10.0,NE,11.5,-,N/A,,Overcast,40,2013-02-28 19:54:00
2:28 PM,30.2,17.6,60,30.03,10.0,NE,13.8,-,N/A,,Overcast,40,2013-02-28 20:28:00
3:19 PM,28.4,17.6,64,30.04,10.0,NE,10.4,-,N/A,,Overcast,40,2013-02-28 21:19:00
3:42 PM,28.4,17.6,64,30.04,10.0,NE,12.7,18.4,N/A,,Overcast,40,2013-02-28 21:42:00
3:54 PM,28.9,17.1,61,30.10,10.0,NNE,8.1,-,N/A,,Overcast,30,2013-02-28 21:54:00
4:54 PM,28.0,16.0,61,30.12,10.0,NE,9.2,-,N/A,,Overcast,40,2013-02-28 22:54:00
5:54 PM,26.1,15.1,63,30.13,10.0,NNE,5.8,-,N/A,,Mostly Cloudy,30,2013-02-28 23:54:00
6:54 PM,26.1,15.1,63,30.15,10.0,NNE,10.4,-,N/A,,Overcast,20,2013-03-01 00:54:00
8:54 PM,23.0,12.9,65,30.19,10.0,ENE,15.0,-,N/A,,Overcast,60,2013-03-01 02:54:00
9:17 PM,21.2,12.2,68,30.14,10.0,ENE,12.7,-,N/A,,Overcast,60,2013-03-01 03:17:00
9:54 PM,21.9,12.0,66,30.21,10.0,NE,11.5,19.6,N/A,,Overcast,40,2013-03-01 03:54:00
10:54 PM,21.0,12.0,68,30.21,10.0,NNE,11.5,-,N/A,,Overcast,30,2013-03-01 04:54:00